Weather History for Bradford, PA

Change the Weather History Date:

Friday, October 11, 2013

  Actual Average Record
Temperature  
Mean Temperature 55 °F 48 °F  
Max Temperature 66 °F 59 °F 75 °F (1962)
Min Temperature 44 °F 37 °F 19 °F (1993)
Degree Days  
Heating Degree Days 10 13  
Month to date heating degree days 77 124  
Since 1 July heating degree days 453 541  
Cooling Degree Days 0 0  
Month to date cooling degree days 9 0  
Year to date cooling degree days 334 192  
Growing Degree Days 5 (Base 50)    
Moisture  
Dew Point 37 °F    
Average Humidity 55    
Maximum Humidity 83    
Minimum Humidity 26    
Precipitation  
Precipitation 0.06 in 0.11 in 1.35 in (1990)
Month to date precipitation 1.24 1.31  
Year to date precipitation 25.18 35.18  
Sea Level Pressure  
Sea Level Pressure 30.13 in    
Wind  
Wind Speed 4 mph (ENE)    
Max Wind Speed 12 mph    
Max Gust Speed 16 mph    
Visibility 10 miles    
Events Rain    
T = Trace of Precipitation, MM = Missing Value Source: NWS Daily Summary

Daily Weather History Graph

Daily Weather History Graph

Search for Another Location

Airport:

Trip Planner

Search our weather history database for the weather conditions in past years. The results will help you decide how hot, cold, wet, or windy it might be!

Date:

Astronomy

Oct. 11, 2013 Rise Set
Actual Time 7:22 AM EDT 6:39 PM EDT
Civil Twilight 6:54 AM EDT 7:07 PM EDT
Nautical Twilight 6:22 AM EDT 7:39 PM EDT
Astronomical Twilight 5:50 AM EDT 8:11 PM EDT
Moon 2:05 PM EDT (10/11) No Moon Set
Length of Visible Light 12h 12m
Length of Day
11h 16m
Waxing Crescent, 47% of the Moon is Illuminated
Oct 11
Waxing Crescent
Oct 11
First Quarter
Oct 18
Full
Oct 26
Last Quarter
Nov 3
New

Hourly Weather History & Observations

Time (EDT) Temp. Dew Point Humidity Pressure Visibility Wind Dir Wind Speed Gust Speed Precip Events Conditions
12:53 AM 48.9 °F 37.0 °F 64% 30.12 in 10.0 mi Calm Calm - N/A   Overcast
1:53 AM 48.9 °F 37.9 °F 66% 30.11 in 10.0 mi Calm Calm - N/A   Partly Cloudy
2:53 AM 52.0 °F 33.1 °F 49% 30.11 in 10.0 mi Calm Calm - N/A   Overcast
3:53 AM 50.0 °F 39.0 °F 66% 30.10 in 10.0 mi Calm Calm - N/A   Overcast
4:53 AM 52.0 °F 35.1 °F 53% 30.12 in 10.0 mi East 5.8 mph - N/A   Overcast
5:53 AM 50.0 °F 39.9 °F 68% 30.12 in 10.0 mi East 4.6 mph - 0.00 in Rain Light Rain
6:53 AM 51.1 °F 41.0 °F 68% 30.12 in 10.0 mi East 4.6 mph - 0.00 in   Mostly Cloudy
7:53 AM 51.1 °F 41.0 °F 68% 30.13 in 10.0 mi East 6.9 mph - N/A   Overcast
8:53 AM 51.1 °F 44.1 °F 77% 30.14 in 10.0 mi ESE 8.1 mph - 0.00 in Rain Light Rain
9:53 AM 51.1 °F 45.0 °F 80% 30.15 in 10.0 mi East 4.6 mph - 0.02 in Rain Light Rain
10:53 AM 51.1 °F 46.0 °F 83% 30.15 in 10.0 mi SE 5.8 mph - 0.01 in Rain Light Rain
11:53 AM 53.1 °F 43.0 °F 69% 30.16 in 10.0 mi NE 3.5 mph - 0.02 in Rain Light Rain
12:53 PM 57.0 °F 41.0 °F 55% 30.14 in 10.0 mi East 5.8 mph - 0.01 in   Overcast
1:53 PM 61.0 °F 35.1 °F 38% 30.12 in 10.0 mi NE 6.9 mph - N/A   Overcast
2:53 PM 63.0 °F 30.0 °F 29% 30.10 in 10.0 mi NE 5.8 mph - N/A   Overcast
3:53 PM 63.0 °F 28.0 °F 27% 30.11 in 10.0 mi NE 9.2 mph - N/A   Overcast
4:53 PM 64.9 °F 28.9 °F 26% 30.10 in 10.0 mi NE 6.9 mph - N/A   Overcast
5:53 PM 63.0 °F 30.0 °F 29% 30.11 in 10.0 mi NE 6.9 mph - N/A   Overcast
6:53 PM 60.1 °F 33.1 °F 36% 30.13 in 10.0 mi ENE 5.8 mph - N/A   Mostly Cloudy
7:53 PM 57.9 °F 35.1 °F 42% 30.13 in 10.0 mi ENE 4.6 mph - N/A   Mostly Cloudy
8:53 PM 50.0 °F 37.0 °F 61% 30.14 in 10.0 mi Calm Calm - N/A   Clear
9:53 PM 46.9 °F 36.0 °F 66% 30.15 in 10.0 mi Calm Calm - N/A   Clear
10:53 PM 50.0 °F 35.1 °F 57% 30.14 in 10.0 mi Calm Calm - N/A   Clear
11:53 PM 46.9 °F 35.1 °F 63% 30.14 in 10.0 mi Calm Calm - N/A   Clear